Regional Weather Roundup
Issued by NWS

Home | Current Version | Previous Version | Graphics & Text | Print | Product List | Glossary Off
Versions: 1 2 3 4 5 6 7 8 9 10 11 12 13 14 15 16 17 18 19 20 21 22 23 24 25 26 27 28 29 30 31 32 33 34 35 36 37 38 39 40 41 42 43 44 45 46 47 48 49 50

000
ASUS45 KCYS 041210
RWRWY

WYOMING REGIONAL WEATHER ROUNDUP
NATIONAL WEATHER SERVICE CHEYENNE WY
600 AM MDT SAT JUL 04 2015

NOTE:  "FAIR" INDICATES FEW OR NO CLOUDS BELOW 12,000 FEET
WITH NO SIGNIFICANT WEATHER AND/OR OBSTRUCTIONS TO VISIBILITY.

WYZ001-041300-
YELLOWSTONE NATIONAL PARK

CITY           SKY/WX    TMP DP  RH WIND       PRES   REMARKS
LK YELLOWSTONE   N/A     43  39  86 CALM      30.22R
6HR MIN TEMP:  43; 6HR MAX TEMP:  52;

W YELLOWSTONE  NOT AVBL

$$
WYZ002>013-054>058-071-098>099-041300-
NORTHERN WYOMING

CITY           SKY/WX    TMP DP  RH WIND       PRES   REMARKS
JACKSON        FAIR      48  45  87 N6        30.11R
CODY           FAIR      63  46  55 CALM      29.98R
GREYBULL       FAIR      65  50  58 SE5       29.90R
6HR MIN TEMP:  65; 6HR MAX TEMP:  77;

WORLAND        FAIR      61  54  77 S8        29.91R
6HR MIN TEMP:  60; 6HR MAX TEMP:  69;

SHERIDAN       FAIR      59  53  80 CALM      29.88S
6HR MIN TEMP:  57; 6HR MAX TEMP:  66;

BUFFALO        FAIR      67  47  48 W7        29.95R
6HR MIN TEMP:  62; 6HR MAX TEMP:  71;

GILLETTE       FAIR      62  56  80 VRB3      29.91S
6HR MIN TEMP:  61; 6HR MAX TEMP:  71;

HULETT         FAIR      68  55  64 SW10      29.92R
NEWCASTLE      FAIR      64  52  63 E8        29.94S

$$
WYZ014>020-022>026-101>103-041300-
CENTRAL WYOMING

CITY           SKY/WX    TMP DP  RH WIND       PRES   REMARKS
BIG PINEY      FAIR      52  39  61 CALM      30.15R
6HR MIN TEMP:  50; 6HR MAX TEMP:  62;

PINEDALE       FAIR      52  46  82 W3        30.16S
DUBOIS         FAIR      52  37  58 NW13      30.15R
LANDER         FAIR      60  47  61 SW5       30.01S
6HR MIN TEMP:  60; 6HR MAX TEMP:  71;

RIVERTON       FAIR      63  50  62 W8        30.01R
6HR MIN TEMP:  62; 6HR MAX TEMP:  72;

CASPER         FAIR      55  51  86 S5        29.99R
6HR MIN TEMP:  54; 6HR MAX TEMP:  66;

DOUGLAS        FAIR      59  52  77 SE7       29.97S
6HR MIN TEMP:  57; 6HR MAX TEMP:  68;


$$
WYZ021-027>030-104>119-041300-
SOUTHERN WYOMING

CITY           SKY/WX    TMP DP  RH WIND       PRES   REMARKS
EVANSTON       FAIR      63  41  44 S6        30.16S
6HR MIN TEMP:  63; 6HR MAX TEMP:  70;

KEMMERER       FAIR      59  43  55 NW8       30.17S
FORT BRIDGER   MOSUNNY   68  39  34 W7        30.18R
ROCK SPRINGS   FAIR      65  41  41 W6        30.13R
6HR MIN TEMP:  63; 6HR MAX TEMP:  72;

DIXON          FAIR      52  42  68 E3        30.17R
RAWLINS        FAIR      57  50  77 N15       30.13R
6HR MIN TEMP:  53; 6HR MAX TEMP:  66;

SARATOGA       FAIR      55  45  67 SE8       30.14S
LARAMIE        FAIR      53  49  86 SE9       30.13S
6HR MIN TEMP:  52; 6HR MAX TEMP:  62;

CHEYENNE       FAIR      59  55  87 SW7       30.06S
6HR MIN TEMP:  59; 6HR MAX TEMP:  65;

TORRINGTON     FAIR      64  59  83 E9        29.93F
6HR MIN TEMP:  62; 6HR MAX TEMP:  72; 6HR PCP: TRACE;

PINE BLUFFS    FAIR      59  57  94 SW3       30.01S

$$


USA.gov is the U.S. government's official web portal to all federal, state and local government web resources and services.